This demonstration page uses our WeatherBlox Daily Observations layout. Learn more.

Left ArrowRight Arrow

39.51506, -84.39828

Hourly Observations for January 30, 2015

Temp ( °F °C ) Dew Point ( °F °C ) Humidity (%) Winds ( mph kmh ) Pressure ( in mb ) Visibility ( mi km ) Precip ( " mm )
12:15 am 00:15 Cloudy 35 1.4 30 -1.3 82 82 W 8 13 30.24 1024 7 11 0.00 0.00
12:35 am 00:35 Cloudy 34 1.2 29 -1.5 82 82 W 5 7 30.24 1024 7 11 0.00 0.00
12:55 am 00:55 Cloudy 35 1.6 29 -1.5 80 80 WNW 8 13 30.24 1024 10 16 0.00 0.00
1:15 am 01:15 Cloudy 36 2 29 -1.7 77 77 WNW 8 13 30.24 1024 10 16 0.00 0.00
1:35 am 01:35 undefined N/A N/A N/A undefined N/A N/A N/A 0.00 0.00
1:55 am 01:55 Cloudy 35 1.9 28 -2 76 76 WNW 6 9 30.24 1024 10 16 0.00 0.00
2:15 am 02:15 Cloudy 36 2 28 -2.2 74 74 WNW 7 11 30.24 1024 10 16 0.00 0.00
2:35 am 02:35 Cloudy N/A N/A N/A undefined N/A N/A N/A 0.00 0.00
2:55 am 02:55 Cloudy N/A N/A N/A undefined N/A N/A 10 16 0.00 0.00
3:15 am 03:15 Mostly Clear with Drizzle N/A N/A N/A undefined N/A N/A N/A 0.00 0.00
3:35 am 03:35 Cloudy 35 1.8 27 -2.7 72 72 WNW 10 17 30.27 1025 10 16 0.00 0.00
3:55 am 03:55 Cloudy with Drizzle N/A N/A N/A WNW 12 19 N/A 10 16 0.00 0.00
4:15 am 04:15 Cloudy N/A N/A N/A undefined N/A N/A 10 16 0.00 0.00
4:35 am 04:35 Cloudy 34 1.2 26 -3.5 71 71 NW 13 20 30.27 1025 10 16 0.00 0.00
4:55 am 04:55 Cloudy with Light Snow 34 1.2 24 -4.2 68 68 NNW 17 28 30.30 1026 7 11 0.00 0.00
5:15 am 05:15 Cloudy with Light Wintry Mix 34 1.2 23 -4.9 64 64 N 13 20 30.33 1027 10 16 0.00 0.00
5:35 am 05:35 Cloudy with Light Snow 34 1.2 21 -6.1 59 59 NNW 15 24 30.33 1027 10 16 0.00 0.00
5:55 am 05:55 Cloudy 34 1.2 20 -6.4 57 57 NNW 17 28 30.33 1027 10 16 0.00 0.00
6:15 am 06:15 Cloudy 34 1.2 21 -6 59 59 N 12 19 30.33 1027 10 16 0.00 0.00
6:35 am 06:35 Cloudy 31 -0.3 19 -7.1 61 61 NNE 18 30 30.36 1028 10 16 0.00 0.00
6:55 am 06:55 Cloudy 29 -1.5 17 -8.4 60 60 undefined N/A N/A N/A 0.00 0.00
7:15 am 07:15 Partly Cloudy 29 -1.5 12 -10.9 49 49 NNW 13 20 30.39 1029 10 16 0.00 0.00
7:35 am 07:35 Partly Cloudy 29 -1.5 14 -10.1 52 52 N 12 19 30.42 1030 10 16 0.00 0.00
7:55 am 07:55 Cloudy 29 -1.5 14 -10 53 53 N 16 26 30.42 1030 10 16 0.00 0.00
8:15 am 08:15 Mostly Cloudy 29 -1.5 14 -10 53 53 N 9 15 30.42 1030 10 16 0.00 0.00
8:35 am 08:35 Mostly Cloudy 29 -1.5 15 -9.5 55 55 NNW 13 20 30.45 1031 10 16 0.00 0.00
8:55 am 08:55 Cloudy 29 -1.5 17 -8.4 60 60 N 13 20 30.45 1031 10 16 0.00 0.00
9:15 am 09:15 Cloudy N/A N/A N/A N 16 26 N/A 10 16 0.00 0.00
9:35 am 09:35 Mostly Cloudy 29 -1.5 13 -10.6 50 50 N 22 35 30.48 1032 10 16 0.00 0.00
9:55 am 09:55 Partly Cloudy 29 -1.5 12 -11 49 49 N 20 31 30.48 1032 10 16 0.00 0.00
10:15 am 10:15 Partly Cloudy 29 -1.5 12 -10.9 49 49 N 20 31 30.50 1033 10 16 0.00 0.00
10:35 am 10:35 Partly Cloudy 29 -1.5 11 -11.8 46 46 N 15 24 30.50 1033 10 16 0.00 0.00
10:55 am 10:55 Partly Cloudy 29 -1.7 10 -12 46 46 N 17 28 30.53 1034 10 16 0.00 0.00
11:15 am 11:15 Sunny 29 -1.5 10 -12.3 44 44 N 15 24 30.53 1034 10 16 0.00 0.00
11:35 am 11:35 Partly Cloudy 29 -1.5 10 -12.1 45 45 N 13 20 30.53 1034 10 16 0.00 0.00
11:55 am 11:55 Mostly Cloudy 29 -1.5 11 -11.6 46 46 NNW 9 15 30.53 1034 10 16 0.00 0.00
12:15 pm 12:15 Mostly Cloudy 29 -1.5 10 -12 45 45 NNW 14 22 30.53 1034 10 16 0.00 0.00
12:35 pm 12:35 Mostly Cloudy 29 -1.5 10 -12 45 45 NNW 9 15 30.53 1034 N/A 0.00 0.00
12:55 pm 12:55 Mostly Cloudy 29 -1.5 10 -12.1 45 45 N 12 19 30.50 1033 10 16 0.00 0.00
1:15 pm 13:15 Mostly Cloudy 30 -1.3 10 -12.4 43 43 NW 12 19 30.50 1033 10 16 0.00 0.00
1:35 pm 13:35 Partly Cloudy 29 -1.5 9 -12.6 43 43 N 9 15 30.50 1033 10 16 0.00 0.00
1:55 pm 13:55 Partly Cloudy 30 -1 9 -12.6 41 41 N 12 19 30.50 1033 10 16 0.00 0.00
2:15 pm 14:15 Mostly Cloudy 29 -1.5 10 -12.1 45 45 N 12 19 30.50 1033 10 16 0.00 0.00
2:35 pm 14:35 Partly Cloudy 29 -1.5 10 -12.4 44 44 NNW 10 17 30.50 1033 10 16 0.00 0.00
2:55 pm 14:55 Partly Cloudy N/A N/A N/A undefined N/A N/A 10 16 0.00 0.00
3:15 pm 15:15 Mostly Cloudy 29 -1.5 11 -11.5 47 47 N 8 13 30.50 1033 10 16 0.00 0.00
3:35 pm 15:35 Mostly Cloudy 29 -1.5 11 -11.5 47 47 WNW 6 9 30.50 1033 10 16 0.00 0.00
3:55 pm 15:55 Mostly Cloudy N/A N/A N/A NW 9 15 N/A 10 16 0.00 0.00
4:15 pm 16:15 Partly Cloudy N/A N/A N/A NNW 8 13 N/A 10 16 0.00 0.00
4:35 pm 16:35 Partly Cloudy 29 -1.5 12 -11.2 48 48 NW 10 17 30.50 1033 10 16 0.00 0.00
4:55 pm 16:55 Partly Cloudy 29 -1.5 11 -11.6 46 46 NW 9 15 30.50 1033 10 16 0.00 0.00
5:15 pm 17:15 Partly Cloudy N/A N/A N/A undefined N/A N/A N/A 0.00 0.00
5:35 pm 17:35 Partly Cloudy 29 -1.5 13 -10.7 50 50 WNW 8 13 30.50 1033 10 16 0.00 0.00
5:55 pm 17:55 Clear 29 -1.5 15 -9.7 54 54 N 6 9 30.50 1033 10 16 0.00 0.00
6:15 pm 18:15 Partly Cloudy 29 -1.5 15 -9.5 55 55 N 6 9 30.50 1033 10 16 0.00 0.00
6:35 pm 18:35 Clear 27 -2.8 13 -10.5 56 56 N 5 7 30.53 1034 10 16 0.00 0.00
6:55 pm 18:55 Clear 27 -2.8 13 -10.5 56 56 Calm 30.53 1034 10 16 0.00 0.00
7:15 pm 19:15 Clear 27 -2.8 14 -10 58 58 Calm 30.53 1034 10 16 0.00 0.00
7:35 pm 19:35 Clear 24 -4.2 15 -9.2 68 68 Calm 30.53 1034 10 16 0.00 0.00
7:55 pm 19:55 Clear 24 -4.7 15 -9.4 70 70 Calm 30.53 1034 10 16 0.00 0.00
8:15 pm 20:15 Clear 22 -5.5 14 -10 71 71 Calm 30.53 1034 10 16 0.00 0.00
8:35 pm 20:35 Clear 22 -5.6 15 -9.5 74 74 Calm 30.53 1034 10 16 0.00 0.00
8:55 pm 20:55 Clear 21 -6.3 14 -9.8 77 77 Calm 30.53 1034 10 16 0.00 0.00
9:15 pm 21:15 Clear 21 -6.3 15 -9.5 78 78 Calm 30.53 1034 10 16 0.00 0.00
9:35 pm 21:35 Clear 21 -6.3 15 -9.5 78 78 Calm 30.53 1034 10 16 0.00 0.00
9:55 pm 21:55 Clear 20 -6.4 15 -9.6 78 78 Calm 30.53 1034 10 16 0.00 0.00
10:15 pm 22:15 Clear 20 -6.9 15 -9.7 81 81 Calm 30.53 1034 10 16 0.00 0.00
10:35 pm 22:35 Clear 19 -7 15 -9.7 81 81 Calm 30.50 1033 10 16 0.00 0.00
10:55 pm 22:55 Clear 19 -7 15 -9.7 81 81 Calm 30.50 1033 10 16 0.00 0.00
11:15 pm 23:15 Clear 19 -7 15 -9.5 83 83 Calm 30.50 1033 10 16 0.00 0.00
11:35 pm 23:35 Clear 19 -7 15 -9.5 83 83 Calm 30.50 1033 10 16 0.00 0.00
11:55 pm 23:55 Clear 19 -7 15 -9.5 83 83 Calm 30.50 1033 10 16 0.00 0.00

Powered by AerisWeather